Zurück zum Katalog

QIANFAN-181

AktivKommunikationPO
NORAD 69398·PAYLOAD·🇨🇳 China

Gestartet Jun 4, 2026 von Taiyuan Satellite Launch Center

Loading…

Nächste Überflüge (nächste 24 Stunden)

TLE

AktuellSource: Space-Track

Epoche: Sep 14, 2026, 13:34 UTC

1 69398U 26124S   26257.56529239  .00000132  00000-0  18653-3 0  9995
2 69398  89.0075 352.6451 0002148 106.5513 253.5875 13.51022906 14096

Verfolge QIANFAN-181 in Echtzeit mit AllMySat

Download on the App Store